This demonstration page uses our WeatherBlox Daily Observations layout. Learn more.

Left ArrowRight Arrow

39.08367, -84.50855

Hourly Observations for August 27, 2019

Temp ( °F °C ) Dew Point ( °F °C ) Humidity (%) Winds ( mph kmh ) Pressure ( in mb ) Visibility ( mi km ) Precip ( " mm )
12:53 am 00:53 Cloudy 70 21.1 68 20 93 93 S 9 15 29.89 1012 10 16 N/A
1:53 am 01:53 Cloudy with Mist and Fog 70 21.1 68 20 93 93 S 9 15 29.89 1012 6 10 N/A
2:28 am 02:28 Cloudy 70 21.1 68 20 93 93 S 8 13 29.88 1012 8 13 N/A
2:53 am 02:53 Cloudy 70 21.1 68 20 93 93 S 7 11 29.88 1012 10 16 N/A
3:23 am 03:23 Cloudy 70 21.1 68 20 93 93 S 9 15 29.88 1012 9 14 N/A
3:53 am 03:53 Cloudy 70 21.1 68 20 93 93 S 8 13 29.88 1012 10 16 N/A
4:53 am 04:53 Cloudy 70 21.1 68 20 93 93 S 8 13 29.88 1012 10 16 N/A
5:53 am 05:53 Cloudy 71 21.7 68 20 90 90 SSW 10 17 29.88 1012 10 16 N/A
6:53 am 06:53 Cloudy 71 21.7 69 20.6 94 94 S 9 15 29.87 1012 10 16 N/A
7:53 am 07:53 Cloudy 71 21.7 69 20.6 94 94 S 8 13 29.88 1012 10 16 N/A
9:53 am 09:53 Cloudy 73 22.8 70 21.1 90 90 SSW 8 13 29.88 1012 10 16 N/A
10:53 am 10:53 Cloudy 75 23.9 71 21.7 88 88 S 9 15 29.86 1011 10 16 N/A
11:26 am 11:26 Mostly Cloudy 77 25 72 22.2 85 85 S 9 15 29.86 1011 10 16 N/A
11:53 am 11:53 Cloudy 76 24.4 71 21.7 85 85 SSW 6 9 29.87 1012 10 16 N/A
12:53 pm 12:53 Cloudy with Light Rain 76 24.4 71 21.7 85 85 N N/A 29.88 1012 7 11 0.01 0.25
1:30 pm 13:30 Cloudy with Light Rain 74 23.3 72 22.2 94 94 S 3 6 29.87 1012 4 6 0.00 0.00
1:38 pm 13:38 Cloudy with Light Rain 74 23.3 73 22.8 97 97 S 3 6 29.87 1012 3 5 0.00 0.00
1:53 pm 13:53 Cloudy with Light Rain 74 23.3 73 22.8 97 97 S 3 6 29.87 1012 3 5 0.01 0.25
2:32 pm 14:32 Cloudy with Mist and Fog 76 24.4 73 22.8 91 91 SSW 7 11 29.86 1011 5 8 0.00 0.00
2:53 pm 14:53 Cloudy 78 25.6 74 23.3 87 87 SSW 6 9 29.86 1011 10 16 0.00 0.00
3:43 pm 15:43 Mostly Cloudy 79 26.1 73 22.8 82 82 S 9 15 29.84 1010 10 16 N/A
3:53 pm 15:53 Mostly Cloudy 79 26.1 73 22.8 82 82 S 10 17 29.84 1011 10 16 N/A
5:00 pm 17:00 Cloudy with Strong Thunderstorms 73 22.8 72 22.2 96 96 NNW 13 20 29.85 1011 2 3 0.23 5.84
5:19 pm 17:19 Cloudy with Thunderstorms 74 23.3 71 21.7 91 91 N N/A 29.85 1011 5 8 0.29 7.37
5:53 pm 17:53 Cloudy with Nearby Thunderstorms 75 23.9 73 22.8 94 94 N N/A 29.86 1011 10 16 0.29 7.37
6:05 pm 18:05 Cloudy 75 23.9 72 22.2 90 90 N N/A 29.85 1011 10 16 0.00 0.00
6:45 pm 18:45 Mostly Cloudy 76 24.4 73 22.8 91 91 SSW 6 9 29.86 1011 10 16 0.00 0.00
6:53 pm 18:53 Partly Cloudy 76 24.4 73 22.8 91 91 SSW 5 7 29.87 1011 10 16 0.00 0.00
7:53 pm 19:53 Mostly Cloudy 75 23.9 73 22.8 94 94 N N/A 29.87 1012 10 16 N/A
8:30 pm 20:30 Cloudy 72 22.2 71 21.7 97 97 SSW 8 13 29.87 1012 10 16 N/A
8:53 pm 20:53 Partly Cloudy 69 20.6 69 20.6 100 100 SW 5 7 29.89 1012 10 16 N/A
9:53 pm 21:53 Clear with Mist and Fog 68 20 68 20 100 100 SSW 3 6 29.91 1013 5 8 N/A
10:14 pm 22:14 Partly Cloudy with Fog 66 18.9 66 18.9 100 100 S 3 6 29.92 1013 5 8 N/A
10:43 pm 22:43 Mostly Cloudy with Fog 67 19.4 67 19.4 100 100 N N/A 29.92 1013 2 3 N/A
10:53 pm 22:53 Mostly Cloudy with Fog 67 19.4 67 19.4 100 100 N N/A 29.92 1013 0 0 N/A
11:53 pm 23:53 Mostly Cloudy with Fog 66 18.9 66 18.9 100 100 N N/A 29.92 1013 0 0 N/A

Powered by AerisWeather